Location: Central Falls
(41.8900°N, 71.3929°W)
Time: 07:45:53
(UTC+00:00)

Altair - Pass Details

Date: 15 December 2023
Orbit: 1501 x 1682 km, 47.2° (Epoch: 29 February)

Event Time Altitude Azimuth Distance (km) Brightness Sun altitude
Rises 10:50:49 0° 244° (WSW) 4,896 9.7 -13.5°
Reaches altitude 10° 10:53:59 10° 245° (WSW) 3,893 9.2 -12.9°
Maximum altitude 11:03:59 87° 335° (NNW) 1,615 7.6 -11.2°
Drops below altitude 10° 11:13:37 10° 66° (ENE) 3,759 10.2 -9.5°
Sets 11:16:38 0° 67° (ENE) 4,721 10.8 -9.0°
